User: anonymous   Login
Location: Unspecified
(0.0000°N, 0.0000°E)
Time: 09:32:18
(UTC+00:00)
Language:

Explorer 26 - Orbit

View from above orbital plane
View from above orbital plane
View from above satellite
View from above satellite

Ground track
Ground track

The orbit data is extracted from the following two-line orbital elements,

1   963U 64086A   17294.76775812 +.00090091 -92879-5 +10367-2 0  9997
2   963 019.7130 107.5519 1137511 091.7242 281.3492 13.41534038059154
Epoch (UTC): 21 October 2017 18:25:34
Eccentricity: 0.1137511
inclination: 19.7130°
perigee height: 252 km
apogee height: 1954 km
right ascension of ascending node: 107.5519°
argument of perigee: 91.7242°
revolutions per day: 13.41534038
mean anomaly at epoch: 281.3492°
orbit number at epoch: 5915

The dashed part of the orbit path shows where the satellite is in the earth's shadow,  

DLR